| time (UTC) | temp C | wind direction | speed KPH | gust KPH | rain 1hr cm | rain 24hr cm | rain mn cm | humidity % | barometer mb |
| 20260509211541 | 35 | 360 | 0.0 | 0.0 | 0.00 | 0.00 | 0.00 | 38 | 1012.4 |
| 20260509210032 | 34 | 360 | 0.0 | 0.0 | 0.00 | 0.00 | 0.00 | 41 | 1012.5 |
| 20260509204530 | 34 | 128 | 0.0 | 0.0 | 0.00 | 0.00 | 0.00 | 40 | 1012.8 |
| 20260509203031 | 33 | 360 | 0.0 | 1.6 | 0.00 | 0.00 | 0.00 | 42 | 1013.0 |
| 20260509201528 | 33 | 360 | 0.0 | 0.0 | 0.00 | 0.00 | 0.00 | 42 | 1013.3 |
| 20260509200026 | 32 | 360 | 0.0 | 0.0 | 0.00 | 0.00 | 0.00 | 44 | 1013.4 |
| 20260509194526 | 31 | 360 | 0.0 | 1.6 | 0.00 | 0.00 | 0.00 | 44 | 1013.6 |
| 20260509193028 | 31 | 360 | 0.0 | 0.0 | 0.00 | 0.00 | 0.00 | 45 | 1013.9 |
| 20260509191522 | 32 | 360 | 0.0 | 0.0 | 0.00 | 0.00 | 0.00 | 47 | 1013.9 |
| 20260509190019 | 31 | 360 | 0.0 | 0.0 | 0.00 | 0.00 | 0.00 | 46 | 1014.2 |
| 20260509184526 | 30 | 360 | 0.0 | 1.6 | 0.00 | 0.00 | 0.00 | 48 | 1014.4 |
| 20260509183018 | 30 | 360 | 0.0 | 1.6 | 0.00 | 0.00 | 0.00 | 51 | 1014.4 |
| 20260509181512 | 30 | 360 | 0.0 | 1.6 | 0.00 | 0.00 | 0.00 | 50 | 1014.5 |
| 20260509180008 | 29 | 360 | 0.0 | 1.6 | 0.00 | 0.00 | 0.00 | 53 | 1014.8 |
| 20260509174505 | 28 | 360 | 0.0 | 1.6 | 0.00 | 0.00 | 0.00 | 55 | 1014.8 |
| 20260509173002 | 28 | 360 | 0.0 | 1.6 | 0.00 | 0.00 | 0.00 | 56 | 1014.9 |
| 20260509171557 | 27 | 360 | 0.0 | 1.6 | 0.00 | 0.00 | 0.00 | 57 | 1015.0 |
| 20260509170058 | 27 | 360 | 0.0 | 1.6 | 0.00 | 0.00 | 0.00 | 59 | 1015.0 |
| 20260509164600 | 26 | 360 | 0.0 | 6.4 | 0.00 | 0.00 | 0.00 | 60 | 1015.2 |
| 20260509163048 | 26 | 360 | 0.0 | 6.4 | 0.00 | 0.00 | 0.00 | 60 | 1015.3 |
| 20260509161554 | 25 | 360 | 0.0 | 3.2 | 0.00 | 0.00 | 0.00 | 62 | 1015.3 |
| 20260509160044 | 25 | 360 | 0.0 | 3.2 | 0.00 | 0.00 | 0.00 | 63 | 1015.4 |
| 20260509154542 | 25 | 360 | 0.0 | 3.2 | 0.00 | 0.00 | 0.00 | 65 | 1015.3 |
| 20260509153039 | 24 | 360 | 0.0 | 1.6 | 0.00 | 0.00 | 0.00 | 67 | 1015.0 |
| 20260509151536 | 23 | 360 | 0.0 | 1.6 | 0.00 | 0.00 | 0.00 | 68 | 1015.1 |
| 20260509150039 | 23 | 360 | 0.0 | 3.2 | 0.00 | 0.00 | 0.00 | 70 | 1015.2 |
| 20260509144536 | 23 | 111 | 0.0 | 3.2 | 0.00 | 0.00 | 0.00 | 75 | 1015.3 |
| 20260509143028 | 22 | 360 | 0.0 | 1.6 | 0.00 | 0.00 | 0.00 | 78 | 1015.3 |
| 20260509141526 | 21 | 360 | 0.0 | 1.6 | 0.00 | 0.00 | 0.00 | 80 | 1015.5 |
| 20260509140023 | 21 | 360 | 0.0 | 3.2 | 0.00 | 0.00 | 0.00 | 81 | 1015.5 |
| 20260509134522 | 21 | 360 | 0.0 | 6.4 | 0.00 | 0.00 | 0.00 | 81 | 1015.5 |
| 20260509133025 | 21 | 360 | 0.0 | 3.2 | 0.00 | 0.00 | 0.00 | 81 | 1015.4 |
| 20260509131520 | 20 | 360 | 0.0 | 6.4 | 0.00 | 0.00 | 0.00 | 81 | 1015.3 |
| 20260509130037 | 20 | 360 | 0.0 | 3.2 | 0.00 | 0.00 | 0.00 | 80 | 1015.3 |
| 20260509124523 | 20 | 360 | 0.0 | 1.6 | 0.00 | 0.00 | 0.00 | 80 | 1015.3 |
| 20260509123022 | 20 | 360 | 0.0 | 1.6 | 0.00 | 0.00 | 0.00 | 80 | 1015.1 |
| 20260509121517 | 20 | 360 | 0.0 | 1.6 | 0.00 | 0.00 | 0.00 | 80 | 1015.0 |
| 20260509120021 | 20 | 360 | 0.0 | 1.6 | 0.00 | 0.00 | 0.00 | 80 | 1014.8 |
| 20260509114511 | 20 | 360 | 0.0 | 0.0 | 0.00 | 0.00 | 0.00 | 79 | 1014.9 |
| 20260509113011 | 20 | 360 | 0.0 | 1.6 | 0.00 | 0.00 | 0.00 | 79 | 1014.5 |
| 20260509111507 | 20 | 360 | 0.0 | 1.6 | 0.00 | 0.00 | 0.00 | 78 | 1014.1 |
| 20260509110005 | 20 | 360 | 0.0 | 3.2 | 0.00 | 0.00 | 0.00 | 78 | 1014.0 |
| 20260509104503 | 21 | 360 | 0.0 | 1.6 | 0.00 | 0.00 | 0.00 | 80 | 1014.0 |
| 20260509103001 | 21 | 360 | 0.0 | 0.0 | 0.00 | 0.00 | 0.00 | 80 | 1013.9 |
| 20260509101603 | 22 | 360 | 0.0 | 0.0 | 0.00 | 0.00 | 0.00 | 79 | 1013.8 |
| 20260509100059 | 21 | 360 | 0.0 | 3.2 | 0.00 | 0.00 | 0.00 | 82 | 1014.0 |
| 20260509094557 | 21 | 360 | 0.0 | 11.3 | 0.00 | 0.00 | 0.00 | 84 | 1013.8 |
| 20260509093056 | 21 | 360 | 0.0 | 8.0 | 0.00 | 0.00 | 0.00 | 84 | 1012.5 |
| 20260509091601 | 21 | 360 | 0.0 | 3.2 | 0.00 | 0.00 | 0.00 | 85 | 1010.8 |
| 20260509090054 | 21 | 360 | 0.0 | 6.4 | 0.00 | 0.00 | 0.00 | 85 | 1011.3 |
| 20260509084552 | 21 | 360 | 0.0 | 6.4 | 0.00 | 0.00 | 0.00 | 86 | 1011.4 |
| 20260509083049 | 21 | 360 | 0.0 | 6.4 | 0.00 | 0.00 | 0.00 | 86 | 1011.9 |
| 20260509081551 | 21 | 360 | 0.0 | 3.2 | 0.00 | 0.00 | 0.00 | 86 | 1012.1 |
| 20260509080045 | 21 | 360 | 0.0 | 0.0 | 0.00 | 0.00 | 0.00 | 86 | 1012.7 |
| 20260509074543 | 21 | 360 | 0.0 | 0.0 | 0.00 | 0.00 | 0.00 | 86 | 1013.0 |
| 20260509073039 | 21 | 360 | 0.0 | 12.9 | 0.00 | 0.00 | 0.00 | 86 | 1014.5 |
| 20260509071538 | 21 | 360 | 0.0 | 6.4 | 0.00 | 0.00 | 0.00 | 87 | 1015.1 |
| 20260509070037 | 21 | 360 | 0.0 | 6.4 | 0.00 | 0.00 | 0.00 | 88 | 1016.0 |
| 20260509064536 | 21 | 360 | 0.0 | 3.2 | 0.00 | 0.13 | 0.00 | 87 | 1016.5 |
| 20260509063034 | 21 | 360 | 0.0 | 0.0 | 0.00 | 0.13 | 0.00 | 87 | 1016.0 |
| 20260509061533 | 21 | 360 | 0.0 | 0.0 | 0.00 | 0.13 | 0.00 | 87 | 1016.3 |
| 20260509060033 | 21 | 360 | 0.0 | 0.0 | 0.00 | 0.13 | 0.00 | 87 | 1016.0 |
| 20260509054532 | 21 | 360 | 0.0 | 0.0 | 0.00 | 0.13 | 0.00 | 87 | 1016.1 |
| 20260509053031 | 21 | 360 | 0.0 | 0.0 | 0.00 | 0.13 | 0.00 | 86 | 1016.0 |
| 20260509051528 | 21 | 360 | 0.0 | 0.0 | 0.00 | 0.13 | 0.00 | 86 | 1015.4 |
| 20260509050036 | 21 | 360 | 0.0 | 0.0 | 0.00 | 0.13 | 0.00 | 86 | 1015.0 |
| 20260509044526 | 21 | 360 | 0.0 | 0.0 | 0.00 | 0.13 | 0.13 | 85 | 1014.6 |
| 20260509043025 | 21 | 360 | 0.0 | 0.0 | 0.00 | 0.13 | 0.13 | 84 | 1015.1 |
| 20260509041526 | 22 | 360 | 0.0 | 0.0 | 0.00 | 0.13 | 0.13 | 84 | 1015.1 |
| 20260509040024 | 22 | 360 | 0.0 | 0.0 | 0.00 | 0.13 | 0.13 | 83 | 1015.2 |
| 20260509034524 | 22 | 360 | 0.0 | 0.0 | 0.00 | 0.13 | 0.13 | 83 | 1014.9 |
| 20260509033023 | 22 | 360 | 0.0 | 0.0 | 0.00 | 0.13 | 0.13 | 83 | 1014.1 |
| 20260509031524 | 22 | 360 | 0.0 | 0.0 | 0.00 | 0.13 | 0.13 | 82 | 1013.9 |
| 20260509030033 | 22 | 360 | 0.0 | 1.6 | 0.00 | 0.13 | 0.13 | 82 | 1013.7 |
| 20260509024522 | 22 | 360 | 0.0 | 1.6 | 0.00 | 0.13 | 0.13 | 82 | 1013.3 |
| 20260509023027 | 22 | 360 | 0.0 | 0.0 | 0.00 | 0.13 | 0.13 | 81 | 1013.0 |
| 20260509021521 | 22 | 360 | 0.0 | 1.6 | 0.00 | 0.13 | 0.13 | 80 | 1013.1 |
| 20260509020020 | 22 | 360 | 0.0 | 0.0 | 0.00 | 0.13 | 0.13 | 79 | 1013.2 |
| 20260509014520 | 23 | 360 | 0.0 | 0.0 | 0.00 | 0.13 | 0.13 | 78 | 1013.4 |
| 20260509013019 | 23 | 360 | 0.0 | 0.0 | 0.00 | 0.13 | 0.13 | 78 | 1013.4 |
| 20260509011519 | 23 | 360 | 0.0 | 0.0 | 0.00 | 0.13 | 0.13 | 77 | 1013.2 |
| 20260509010018 | 23 | 360 | 0.0 | 1.6 | 0.00 | 0.13 | 0.13 | 77 | 1013.0 |
| 20260509004529 | 23 | 360 | 0.0 | 0.0 | 0.00 | 0.13 | 0.13 | 76 | 1012.8 |
| 20260509003016 | 23 | 360 | 0.0 | 0.0 | 0.00 | 0.13 | 0.13 | 76 | 1012.6 |
| 20260509001514 | 23 | 360 | 0.0 | 1.6 | 0.00 | 0.13 | 0.13 | 75 | 1012.8 |
| 20260509000021 | 23 | 360 | 0.0 | 1.6 | 0.00 | 0.13 | 0.13 | 75 | 1013.0 |
| 20260508234513 | 23 | 360 | 0.0 | 0.0 | 0.00 | 0.13 | 0.13 | 74 | 1013.1 |
| 20260508233012 | 23 | 360 | 0.0 | 1.6 | 0.00 | 0.13 | 0.13 | 73 | 1013.2 |
| 20260508231512 | 23 | 360 | 0.0 | 1.6 | 0.00 | 0.13 | 0.13 | 73 | 1013.1 |
| 20260508230011 | 24 | 360 | 0.0 | 3.2 | 0.00 | 0.13 | 0.13 | 71 | 1013.2 |
| 20260508224511 | 25 | 360 | 0.0 | 1.6 | 0.00 | 0.13 | 0.13 | 69 | 1013.1 |
| 20260508223010 | 25 | 210 | 0.0 | 0.0 | 0.00 | 0.13 | 0.13 | 68 | 1013.1 |
| 20260508221509 | 25 | 360 | 0.0 | 1.6 | 0.00 | 0.13 | 0.13 | 67 | 1013.1 |
| 20260508220007 | 25 | 360 | 0.0 | 0.0 | 0.00 | 0.13 | 0.13 | 66 | 1013.3 |
| 20260508214504 | 26 | 360 | 0.0 | 3.2 | 0.00 | 0.13 | 0.13 | 64 | 1013.5 |
| 20260508213006 | 24 | 360 | 0.0 | 1.6 | 0.00 | 0.13 | 0.13 | 67 | 1013.6 |